Regional Weather Roundup
Issued by NWS

Home | Current Version | Previous Version | Text Only | Print | Product List | Glossary Off
Versions: 1 2 3 4 5 6 7 8 9 10 11 12 13 14 15 16 17 18 19 20 21 22 23 24 25 26 27 28 29 30 31 32 33 34 35 36 37 38 39 40 41 42 43 44 45 46 47 48 49 50

000
ASUS43 KFSD 312210
RWRSD

WEATHER ROUNDUP FOR SOUTH DAKOTA
NATIONAL WEATHER SERVICE SIOUX FALLS SD
500 PM CDT WED AUG 31 2016

NOTE: "FAIR" INDICATES FEW OR NO CLOUDS BELOW 12,000 FEET WITH NO
SIGNIFICANT WEATHER AND/OR OBSTRUCTIONS TO VISIBILITY.


SDZ001>005-009-010-012>017-312300-
NORTHWEST AND NORTH CENTRAL SOUTH DAKOTA

CITY           SKY/WX    TMP DP  RH WIND       PRES   REMARKS
BUFFALO          N/A     89  48  24 S31G38    30.02F
FAITH            N/A     87  55  33 S21G30    30.13F
MOBRIDGE       SUNNY     82  64  54 E21G26    30.12F
$$

SDZ012>016-024>037-041>051-057-063-072>074-312300-
SOUTHWEST AND SOUTH CENTRAL SOUTH DAKOTA

CITY           SKY/WX    TMP DP  RH WIND       PRES   REMARKS
RAPID CTY ARPT SUNNY     82  56  40 S16G23    30.16F
PIERRE         SUNNY     86  59  39 SE14      30.12F
CUSTER         SUNNY     72  50  45 SE10G18   30.30F
ELLSWORTH AFB  SUNNY     82  56  40 S16       30.15F
PHILIP         SUNNY     86  58  38 SE16      30.14F
PINE RIDGE     MOSUNNY   82  56  40 SE15      30.18F
WINNER         FAIR      86  65  49 SE10      30.17F
$$

SDZ004>011-016>023-039-040-312300-
NORTHEAST SOUTH DAKOTA

CITY           SKY/WX    TMP DP  RH WIND       PRES   REMARKS
ABERDEEN       MOSUNNY   81  61  50 S5        30.16F
WATERTOWN      SUNNY     80  53  39 SW3       30.19F
BROOKINGS      CLOUDY    80  58  46 NE5       30.19F
SISSETON         N/A     79  57  46 E5        30.17F
$$

SDZ017-020-022-023-036>040-048>070-312300-
SOUTHEAST SOUTH DAKOTA

CITY           SKY/WX    TMP DP  RH WIND       PRES   REMARKS
SIOUX FALLS    MOSUNNY   83  59  44 NE8       30.19S
HURON          SUNNY     83  61  47 VRB3      30.16F
CHAMBERLAIN    MOSUNNY   86  64  47 SE7       30.16F
MITCHELL       SUNNY     84  58  40 VRB3      30.17F
YANKTON        SUNNY     81  57  44 E5        30.16S
$$

ABBREVIATIONS USED IN REMARKS
   TC - TEMPERATURE IN CELSIUS
  WCI - WIND CHILL INDEX
   HX - HEAT INDEX
  VSB - VISIBILITY





USA.gov is the U.S. government's official web portal to all federal, state and local government web resources and services.